Simultaneous Nadir Overpasses (SNOs) Predictions

Prediction of SNOs between FY3D and AQUA Satellite Orbit:

Table of predicted SNOs for the next 14.0 days since TLE Epoch: 2/25/2023
Index Date (FY3D) Time (FY3D) Lat,Lon (FY3D) SZA (FY3D ) Date (AQUA) Time (AQUA) Lat,Lon (AQUA) SZA (AQUA ) Distance(km) Time Diff (sec)
1 02/25/2023 19:50:28 78.18,-135.22 87.84 02/25/2023 19:51:09 78.18,-135.23 87.83 0.23 41
2 02/25/2023 20:41:02 -77.73, 34.47 92.77 02/25/2023 20:40:23 -77.72, 34.54 92.77 1.66 39
3 02/28/2023 10:26:53 78.10, 6.13 86.75 02/28/2023 10:27:05 78.09, 6.24 86.73 2.77 12
4 02/28/2023 11:17:21 -77.40, 176.97 94.17 02/28/2023 11:16:14 -77.40, 176.93 94.15 0.96 67
5 03/03/2023 00:12:41 -78.35, -21.69 93.91 03/03/2023 00:13:43 -78.35, -21.63 93.94 1.47 62
6 03/03/2023 01:03:14 77.83, 148.49 85.39 03/03/2023 01:02:57 77.83, 148.47 85.40 0.43 17
7 03/05/2023 14:49:03 -78.14, 120.46 95.21 03/05/2023 14:49:35 -78.14, 120.43 95.22 0.94 32
8 03/05/2023 15:39:40 77.76, -70.26 84.29 03/05/2023 15:38:52 77.76, -70.15 84.29 2.77 48
9 03/08/2023 05:25:29 -78.08, -98.32 96.31 03/08/2023 05:25:29 -78.07, -98.20 96.33 3.06 0
10 03/10/2023 19:11:18 78.36,-126.26 83.05 03/10/2023 19:12:05 78.35,-126.16 83.02 2.42 47



Historial Predications of SNOs between FY3D and AQUA
